Date String (YYYY-MM-DD hh:mm:ss) UTC,Instrument flags,Ambient pressure (hPa),Sample flow (lpm),Bypass flow (lpm),Sample temperature (°C),Ambient temperature (°C),ASC tube jacket temperature (°C),LED temperature (°C),Box temperature (°C),Sample RH (%),Span deviation,Mass concentration (μg/m³),Mass concentration (μg/m³),Mass concentration (μg/m³)
DateTimeUTC,F1_M11,P_M11,Q1_M11,Q2_M11,T1_M11,T2_M11,T3_M11,T4_M11,T5_M11,U1_M11,ZSPAN_M11,X0_M11,X2_M11,X1_M11
2023-01-24 19:00:00,,0824.9,5.00,0.00,21.4,20.0,00.0,30.1,22.9,11.1,-002.0,0015.42,0010.98,0010.47
2023-01-24 19:01:00,,0824.9,4.99,0.00,21.4,19.8,00.0,30.1,22.9,11.3,-002.1,0016.02,0010.97,0010.47
2023-01-24 19:02:00,,0824.9,4.99,0.00,21.3,19.7,00.0,30.1,22.9,11.3,-002.2,0016.45,0011.00,0010.48
2023-01-24 19:03:00,,0824.9,5.01,0.00,21.3,19.7,00.0,30.1,22.9,11.2,-002.3,0016.85,0011.03,0010.48
2023-01-24 19:04:00,,0824.9,5.01,0.00,21.3,19.6,00.0,30.1,22.9,11.4,-002.4,0017.15,0011.07,0010.50
2023-01-24 19:05:00,,0824.9,4.99,0.00,21.3,19.6,00.0,30.1,22.9,11.2,-002.4,0017.13,0011.08,0010.52
2023-01-24 19:06:00,,0824.9,5.00,0.00,21.3,19.6,00.0,30.1,22.9,11.3,-002.5,0017.25,0011.11,0010.53
2023-01-24 19:07:00,,0824.9,5.01,0.00,21.3,19.7,00.0,30.1,22.9,11.4,-002.6,0017.17,0011.10,0010.55
2023-01-24 19:08:00,,0824.8,5.00,0.00,21.3,19.7,00.0,30.1,22.9,11.4,-002.6,0016.86,0011.10,0010.58
2023-01-24 19:09:00,,0824.8,4.99,0.00,21.3,19.7,00.0,30.1,22.9,11.3,-002.6,0016.54,0011.14,0010.60
2023-01-24 19:10:00,,0824.8,4.99,0.00,21.3,19.7,00.0,30.1,22.9,11.5,-002.7,0016.66,0011.17,0010.62
2023-01-24 19:11:00,,0824.7,5.01,0.00,21.3,19.7,00.0,30.1,22.9,11.6,-002.8,0016.96,0011.20,0010.64
2023-01-24 19:12:00,,0824.7,5.01,0.00,21.3,19.7,00.0,30.1,22.9,11.5,-002.9,0017.01,0011.24,0010.66
2023-01-24 19:13:00,,0824.7,5.01,0.00,21.3,20.2,00.0,30.1,23.0,11.8,-002.9,0017.31,0011.29,0010.70
2023-01-24 19:14:00,,0824.6,5.00,0.00,21.4,21.5,00.0,30.1,23.3,11.8,-002.9,0017.55,0011.39,0010.80
2023-01-24 19:15:00,,0824.7,5.01,0.00,21.5,22.3,00.0,30.1,23.5,11.8,-003.1,0017.42,0011.48,0010.90
2023-01-24 19:16:00,,0824.6,4.97,0.00,21.6,21.9,00.0,30.2,23.5,11.9,-003.2,0017.96,0011.62,0011.00
2023-01-24 19:17:00,,0824.6,5.02,0.00,21.6,21.5,00.0,30.2,23.5,11.8,-003.1,0018.05,0011.74,0011.11
2023-01-24 19:18:00,,0824.6,5.00,0.00,21.6,21.1,00.0,30.2,23.4,11.7,-003.0,0018.32,0011.87,0011.21
2023-01-24 19:19:00,,0824.7,4.99,0.00,21.6,20.7,00.0,30.3,23.3,11.6,-003.0,0018.64,0012.01,0011.30
2023-01-24 19:20:00,,0824.7,5.00,0.00,21.6,20.4,00.0,30.3,23.3,11.5,-002.9,0019.45,0012.07,0011.36
2023-01-24 19:21:00,,0824.7,5.02,0.00,21.6,20.2,00.0,30.3,23.2,11.6,-003.0,0019.64,0012.14,0011.42
2023-01-24 19:22:00,,0824.5,4.99,0.00,21.6,20.1,00.0,30.3,23.2,11.8,-002.8,0019.45,0012.18,0011.48
2023-01-24 19:23:00,,0824.6,5.01,0.00,21.6,20.1,00.0,30.3,23.2,12.1,-002.7,0019.17,0012.19,0011.52
2023-01-24 19:24:00,,0824.5,4.99,0.00,21.5,20.0,00.0,30.3,23.2,12.1,-002.8,0018.24,0012.15,0011.53
2023-01-24 19:25:00,,0824.4,4.99,0.00,21.5,20.0,00.0,30.3,23.2,12.0,-002.8,0017.72,0012.10,0011.50
2023-01-24 19:26:00,,0824.4,5.01,0.00,21.5,20.0,00.0,30.3,23.2,11.7,-002.5,0017.62,0012.05,0011.47
2023-01-24 19:27:00,,0824.6,5.01,0.00,21.5,20.0,00.0,30.3,23.2,11.5,-002.5,0017.70,0012.01,0011.47
2023-01-24 19:28:00,,0824.5,5.01,0.00,21.5,20.0,00.0,30.3,23.2,11.8,-002.6,0018.72,0012.01,0011.48
2023-01-24 19:29:00,,0824.4,5.00,0.00,21.5,20.0,00.0,30.3,23.2,12.0,-002.6,0018.84,0012.01,0011.49
2023-01-24 19:30:00,,0824.5,4.99,0.00,21.5,20.0,00.0,30.3,23.2,11.8,-002.7,0018.70,0011.99,0011.51
2023-01-24 19:31:00,,0824.5,5.00,0.00,21.5,20.0,00.0,30.3,23.2,11.8,-002.9,0018.18,0012.03,0011.54
2023-01-24 19:32:00,,0824.4,5.00,0.00,21.5,19.9,00.0,30.3,23.1,11.6,-002.8,0018.17,0012.04,0011.59
2023-01-24 19:33:00,,0824.4,4.99,0.00,21.5,19.9,00.0,30.3,23.1,11.6,-002.7,0018.26,0012.09,0011.64
2023-01-24 19:34:00,,0824.4,5.00,0.00,21.5,19.9,00.0,30.3,23.1,11.6,-002.7,0018.22,0012.19,0011.70
2023-01-24 19:35:00,,0824.4,4.99,0.00,21.5,19.9,00.0,30.3,23.2,11.7,-002.7,0018.40,0012.28,0011.76
2023-01-24 19:36:00,,0824.4,5.00,0.00,21.5,19.9,00.0,30.3,23.1,11.6,-002.7,0018.53,0012.34,0011.83
2023-01-24 19:37:00,,0824.4,5.01,0.00,21.5,19.9,00.0,30.3,23.1,11.7,-002.7,0018.55,0012.40,0011.90
2023-01-24 19:38:00,,0824.4,4.99,0.00,21.5,20.0,00.0,30.3,23.2,11.7,-002.6,0018.25,0012.45,0011.96
2023-01-24 19:39:00,,0824.4,4.98,0.00,21.5,19.9,00.0,30.2,23.2,11.6,-002.6,0017.46,0012.52,0011.99
2023-01-24 19:40:00,,0824.4,5.01,0.00,21.5,19.9,00.0,30.2,23.1,11.7,-002.6,0018.05,0012.58,0012.06
2023-01-24 19:41:00,,0824.5,5.01,0.00,21.5,19.9,00.0,30.2,23.2,11.8,-002.6,0018.18,0012.66,0012.13
2023-01-24 19:42:00,,0824.4,5.02,0.00,21.5,20.6,00.0,30.2,23.3,11.7,-002.4,0018.24,0012.67,0012.16
2023-01-24 19:43:00,,0824.4,5.01,0.00,21.6,21.9,00.0,30.3,23.5,12.0,-002.3,0018.96,0012.79,0012.25
2023-01-24 19:44:00,,0824.5,4.99,0.00,21.7,22.5,00.0,30.3,23.8,11.9,-002.5,0019.27,0012.89,0012.35
2023-01-24 19:45:00,,0824.4,5.01,0.00,21.8,22.2,00.0,30.4,23.8,11.7,-002.4,0019.27,0012.99,0012.48
2023-01-24 19:46:00,,0824.4,5.01,0.00,21.8,21.8,00.0,30.4,23.8,11.6,-002.3,0019.30,0013.07,0012.58
2023-01-24 19:47:00,,0824.4,5.00,0.00,21.9,21.5,00.0,30.4,23.7,11.8,-002.4,0019.99,0013.22,0012.73
2023-01-24 19:48:00,,0824.4,5.02,0.00,21.9,21.3,00.0,30.5,23.7,11.9,-002.5,0020.24,0013.38,0012.85
2023-01-24 19:49:00,,0824.3,5.01,0.00,21.9,21.1,00.0,30.5,23.7,11.6,-002.6,0021.03,0013.51,0012.96
2023-01-24 19:50:00,,0824.3,5.00,0.00,21.9,21.0,00.0,30.5,23.7,11.6,-002.5,0021.31,0013.53,0013.01
2023-01-24 19:51:00,,0824.3,5.00,0.00,21.9,20.9,00.0,30.5,23.7,11.9,-002.5,0020.53,0013.56,0013.07
2023-01-24 19:52:00,,0824.4,4.99,0.00,21.9,20.8,00.0,30.5,23.7,11.7,-002.5,0020.84,0013.61,0013.10
2023-01-24 19:53:00,,0824.3,5.01,0.00,21.9,20.8,00.0,30.5,23.7,11.6,-002.6,0021.03,0013.62,0013.11
2023-01-24 19:54:00,,0824.3,5.00,0.00,21.9,20.8,00.0,30.6,23.7,11.6,-002.7,0021.19,0013.60,0013.09
2023-01-24 19:55:00,,0824.3,5.01,0.00,21.9,20.7,00.0,30.6,23.7,11.4,-002.7,0020.69,0013.53,0013.02
2023-01-24 19:56:00,,0824.3,5.00,0.00,21.9,20.7,00.0,30.6,23.7,11.3,-002.8,0020.58,0013.42,0012.93
2023-01-24 19:57:00,,0824.3,5.00,0.00,21.9,20.8,00.0,30.6,23.7,11.4,-002.7,0020.39,0013.33,0012.84
2023-01-24 19:58:00,,0824.4,4.99,0.00,22.0,20.8,00.0,30.6,23.8,11.5,-002.5,0019.63,0013.21,0012.71
2023-01-24 19:59:00,,0824.2,5.00,0.00,22.0,20.8,00.0,30.6,23.8,11.4,-002.5,0019.38,0013.01,0012.54
